DW8052 Weather Reports


time (UTC)temp
C
wind
direction
speed
KPH
gust
KPH
rain 1hr
cm
rain 24hr
cm
rain mn
cm
humidity
%
barometer
mb
20220124111241 20 16 11.3 12.9 0.00 0.46 0.46 79 1011.8
20220124110741 20 16 9.7 11.3 0.00 0.46 0.46 80 1011.7
20220124110241 20 16 9.7 12.9 0.00 0.46 0.46 80 1011.9
20220124105741 20 16 11.3 14.5 0.00 0.46 0.46 80 1011.8
20220124105241 20 14 9.7 14.5 0.00 0.46 0.46 81 1011.7
20220124104740 20 17 9.7 11.3 0.00 0.46 0.46 81 1011.7
20220124104241 20 18 9.7 12.9 0.00 0.46 0.46 81 1011.8
20220124103741 20 21 11.3 12.9 0.00 0.46 0.46 81 1011.7
20220124103241 20 26 4.8 9.7 0.00 0.46 0.46 81 1011.7
20220124102741 20 26 8.0 11.3 0.00 0.46 0.46 81 1011.7
20220124102241 20 31 9.7 11.3 0.00 0.46 0.46 82 1011.6
20220124101740 20 48 9.7 12.9 0.00 0.46 0.46 82 1011.6
20220124101240 20 41 9.7 12.9 0.00 0.46 0.46 82 1011.6
20220124100741 20 41 9.7 12.9 0.00 0.46 0.46 82 1011.5
20220124100241 20 28 8.0 11.3 0.00 0.46 0.46 81 1011.4
20220124095741 20 28 8.0 9.7 0.00 0.46 0.46 81 1011.5
20220124095241 20 26 8.0 9.7 0.00 0.46 0.46 81 1011.4
20220124094740 20 24 8.0 9.7 0.00 0.46 0.46 81 1011.5
20220124094241 20 24 8.0 9.7 0.00 0.46 0.46 81 1011.5
20220124093741 20 25 9.7 12.9 0.00 0.46 0.46 81 1011.3
20220124093241 20 26 11.3 12.9 0.00 0.46 0.46 81 1011.4
20220124092740 20 38 9.7 12.9 0.00 0.46 0.46 81 1011.3
20220124092241 20 51 11.3 14.5 0.00 0.46 0.46 81 1011.3
20220124091741 20 48 11.3 14.5 0.00 0.46 0.46 81 1011.2
20220124091241 20 49 12.9 14.5 0.00 0.46 0.46 81 1011.2
20220124090741 20 38 11.3 12.9 0.00 0.46 0.46 81 1011.3
20220124090241 20 51 9.7 12.9 0.00 0.46 0.46 81 1011.1
20220124085741 20 39 11.3 12.9 0.00 0.46 0.46 80 1011.1
20220124085241 20 43 11.3 14.5 0.00 0.46 0.46 80 1011.2
20220124084741 20 57 9.7 12.9 0.00 0.46 0.46 79 1011.1
20220124084240 20 38 11.3 14.5 0.00 0.46 0.46 78 1011.1
20220124083741 20 53 11.3 19.3 0.00 0.46 0.46 76 1011.0
20220124083241 20 42 14.5 19.3 0.00 0.46 0.46 76 1011.1
20220124082741 20 48 14.5 19.3 0.00 0.46 0.46 75 1010.9
20220124082241 21 53 14.5 19.3 0.00 0.46 0.46 75 1010.9
20220124081741 21 58 14.5 19.3 0.00 0.46 0.46 75 1010.9
20220124081240 21 57 14.5 19.3 0.00 0.46 0.46 74 1011.0
20220124080740 21 64 12.9 16.1 0.00 0.46 0.46 75 1011.1
20220124080241 21 71 14.5 19.3 0.00 0.46 0.46 75 1011.0
20220124075741 21 73 12.9 19.3 0.00 0.46 0.46 75 1010.9
20220124075241 21 59 14.5 19.3 0.00 0.46 0.46 75 1010.9
20220124074740 21 71 16.1 22.5 0.00 0.46 0.46 74 1011.0
20220124074240 21 71 12.9 20.9 0.00 0.46 0.46 75 1010.8
20220124073740 21 65 11.3 16.1 0.00 0.46 0.46 74 1010.9
20220124073241 21 57 14.5 20.9 0.00 0.46 0.46 74 1011.1
20220124072740 21 67 16.1 22.5 0.00 0.46 0.46 74 1011.0
20220124072241 21 63 14.5 19.3 0.00 0.46 0.46 74 1011.0
20220124071741 21 64 19.3 24.1 0.00 0.46 0.46 72 1011.0
20220124071240 21 52 20.9 24.1 0.00 0.46 0.46 71 1010.9
20220124070740 22 63 16.1 20.9 0.00 0.46 0.46 71 1011.1
20220124070240 22 61 16.1 25.7 0.00 0.46 0.46 71 1010.9
20220124065740 22 58 20.9 25.7 0.00 0.46 0.46 71 1011.0
20220124065240 22 65 16.1 20.9 0.00 0.46 0.46 71 1010.9
20220124064740 22 75 20.9 25.7 0.00 0.46 0.46 71 1011.0
20220124064241 22 71 17.7 22.5 0.00 0.46 0.46 73 1011.0
20220124063741 22 68 16.1 20.9 0.00 0.46 0.46 73 1011.0
20220124063240 22 78 16.1 20.9 0.00 0.46 0.46 72 1011.1
20220124062740 22 74 14.5 20.9 0.00 0.46 0.46 71 1011.1
20220124062240 22 68 12.9 22.5 0.00 0.46 0.46 71 1011.1
20220124061740 22 71 17.7 22.5 0.00 0.46 0.46 70 1011.0
20220124061240 22 64 17.7 22.5 0.00 0.46 0.46 71 1011.0
20220124060741 22 82 14.5 19.3 0.00 0.46 0.46 72 1011.1
20220124060240 22 66 14.5 22.5 0.00 0.46 0.46 73 1011.1
20220124055741 22 66 14.5 22.5 0.00 0.46 0.46 74 1011.1
20220124055240 22 71 14.5 20.9 0.00 0.46 0.46 75 1011.3
20220124054741 21 69 14.5 20.9 0.00 0.46 0.46 75 1011.2
20220124054241 21 74 16.1 22.5 0.00 0.46 0.46 75 1011.1
20220124053740 21 71 17.7 20.9 0.00 0.46 0.46 74 1011.3
20220124053240 21 68 16.1 22.5 0.00 0.46 0.46 74 1011.4
20220124052740 21 92 19.3 22.5 0.00 0.46 0.46 74 1011.3
20220124052240 21 77 16.1 24.1 0.00 0.46 0.46 73 1011.1
20220124051740 22 91 19.3 22.5 0.00 0.46 0.46 72 1011.2
20220124051241 22 81 16.1 20.9 0.00 0.46 0.46 72 1011.3
20220124050741 22 84 16.1 20.9 0.00 0.46 0.46 72 1011.2
20220124050240 22 88 19.3 20.9 0.00 0.46 0.46 71 1011.2
20220124045740 22 82 16.1 19.3 0.00 0.46 0.46 71 1011.2
20220124045241 22 82 16.1 20.9 0.00 0.46 0.46 71 1011.3
20220124044740 22 96 16.1 20.9 0.00 0.46 0.46 70 1011.4
20220124044239 22 89 16.1 22.5 0.00 0.46 0.46 68 1011.4
20220124043740 23 88 17.7 20.9 0.00 0.46 0.46 66 1011.5
20220124043240 23 100 14.5 20.9 0.00 0.46 0.46 65 1011.5
20220124042740 23 103 14.5 20.9 0.00 0.46 0.46 65 1011.5
20220124042240 23 97 14.5 19.3 0.00 0.46 0.46 66 1011.6
20220124041740 23 109 14.5 20.9 0.00 0.46 0.46 68 1011.8
20220124041240 22 111 14.5 20.9 0.00 0.46 0.46 68 1011.7
20220124040740 22 111 14.5 20.9 0.00 0.46 0.46 68 1011.6
20220124040240 23 103 14.5 20.9 0.00 0.46 0.46 66 1011.6
20220124035740 23 99 16.1 20.9 0.00 0.46 0.46 66 1011.8
20220124035240 23 101 16.1 20.9 0.00 0.46 0.46 64 1011.8
20220124034740 23 95 19.3 22.5 0.00 0.46 0.46 62 1011.8
20220124034240 24 102 16.1 19.3 0.00 0.46 0.46 62 1011.8
20220124033740 24 114 16.1 24.1 0.00 0.46 0.46 62 1011.8
20220124033240 24 107 16.1 20.9 0.00 0.46 0.46 63 1011.9
20220124032740 23 106 11.3 19.3 0.00 0.46 0.46 63 1011.8
20220124032239 23 109 14.5 20.9 0.00 0.46 0.46 64 1012.0
20220124031740 23 106 12.9 20.9 0.00 0.46 0.46 64 1012.0
20220124031240 23 109 16.1 20.9 0.00 0.46 0.46 62 1012.0
20220124030739 24 107 14.5 19.3 0.00 0.46 0.46 61 1012.1
20220124030239 24 115 12.9 19.3 0.00 0.46 0.46 61 1012.3
20220124025740 24 111 12.9 19.3 0.00 0.46 0.46 60 1012.1
20220124025240 24 107 9.7 19.3 0.00 0.46 0.46 60 1012.1
20220124024740 24 110 8.0 16.1 0.00 0.46 0.46 61 1012.2
20220124024240 24 100 11.3 16.1 0.00 0.46 0.46 61 1012.3
20220124023739 24 134 6.4 12.9 0.00 0.46 0.46 61 1012.4
20220124023239 24 103 12.9 19.3 0.00 0.46 0.46 60 1012.5
20220124022740 24 156 14.5 20.9 0.00 0.46 0.46 60 1012.7
20220124022240 24 122 11.3 19.3 0.00 0.48 0.46 60 1012.7
20220124021739 24 128 11.3 16.1 0.00 0.48 0.46 60 1012.8
20220124021240 24 112 8.0 14.5 0.00 0.48 0.46 61 1012.9
20220124020740 24 114 8.0 14.5 0.00 0.48 0.46 61 1012.9
20220124020240 24 116 9.7 16.1 0.00 0.48 0.46 61 1012.9
20220124015739 24 137 11.3 19.3 0.00 0.48 0.46 63 1013.1
20220124015240 24 129 11.3 19.3 0.00 0.48 0.46 63 1013.0
20220124014739 24 131 14.5 22.5 0.00 0.48 0.46 63 1013.0
20220124014240 24 122 12.9 22.5 0.00 0.48 0.46 63 1013.1
20220124013739 25 126 16.1 22.5 0.00 0.48 0.46 61 1013.1
20220124013240 25 130 16.1 22.5 0.00 0.48 0.46 61 1013.2
20220124012740 24 127 16.1 22.5 0.00 0.48 0.46 63 1013.2
20220124012239 24 130 16.1 24.1 0.00 0.48 0.46 62 1013.2
20220124011739 24 125 14.5 20.9 0.00 0.48 0.46 63 1013.5
20220124011239 24 129 12.9 22.5 0.00 0.48 0.46 63 1013.4
20220124010739 24 130 14.5 20.9 0.00 0.48 0.46 63 1013.4
20220124010239 24 132 14.5 20.9 0.00 0.48 0.46 63 1013.7
20220124005740 23 133 16.1 20.9 0.00 0.48 0.46 63 1013.7
20220124005240 23 126 16.1 22.5 0.00 0.48 0.46 63 1013.6
20220124004740 23 108 11.3 19.3 0.00 0.48 0.46 64 1013.7
20220124004239 23 109 12.9 19.3 0.00 0.48 0.46 63 1013.7
20220124003740 23 118 9.7 16.1 0.00 0.48 0.46 64 1013.6
20220124003239 23 100 11.3 14.5 0.00 0.48 0.46 63 1013.8
20220124002739 23 102 9.7 14.5 0.00 0.48 0.46 63 1013.7
20220124002240 24 95 11.3 16.1 0.00 0.48 0.46 61 1013.7
20220124001739 24 95 9.7 12.9 0.00 0.48 0.46 62 1013.8
20220124001240 24 90 9.7 11.3 0.00 0.48 0.46 63 1013.8
20220124000739 25 84 6.4 9.7 0.00 0.48 0.46 63 1014.0
20220124000241 24 87 4.8 8.0 0.00 0.48 0.46 64 1013.9
20220123235740 24 120 3.2 4.8 0.00 0.48 0.46 65 1013.9
20220123235240 23 124 0.0 4.8 0.00 0.48 0.46 66 1013.9
20220123234740 23 133 3.2 8.0 0.00 0.48 0.46 66 1014.0
20220123234239 23 146 4.8 8.0 0.00 0.48 0.46 67 1014.0
20220123233740 23 146 4.8 11.3 0.00 0.48 0.46 67 1014.1
20220123233239 23 153 3.2 11.3 0.00 0.48 0.46 66 1014.2
20220123232740 23 155 6.4 11.3 0.00 0.48 0.46 67 1014.2
20220123232238 23 129 4.8 11.3 0.00 0.48 0.46 67 1014.2
20220123231739 23 121 4.8 9.7 0.00 0.48 0.46 68 1014.1
20220123231239 22 132 8.0 12.9 0.00 0.48 0.46 69 1014.2
20220123230739 22 120 9.7 14.5 0.00 0.48 0.46 70 1014.3
20220123230239 22 157 8.0 12.9 0.00 0.48 0.46 71 1014.4
20220123225740 22 135 11.3 16.1 0.00 0.48 0.46 72 1014.3
20220123225239 22 126 8.0 12.9 0.00 0.48 0.46 73 1014.3
20220123224740 21 116 8.0 12.9 0.00 0.48 0.46 73 1014.3
20220123224239 21 121 8.0 12.9 0.00 0.48 0.46 75 1014.4
20220123223740 21 128 4.8 12.9 0.00 0.48 0.46 77 1014.5
20220123223239 21 113 6.4 11.3 0.00 0.48 0.46 78 1014.6
20220123222739 20 119 4.8 9.7 0.00 0.48 0.46 79 1014.5
20220123222240 20 139 3.2 11.3 0.00 0.48 0.46 80 1014.7
20220123221739 20 171 4.8 12.9 0.00 0.48 0.46 81 1014.8
20220123221240 20 212 8.0 19.3 0.00 0.48 0.46 81 1014.5
20220123220739 20 164 12.9 20.9 0.00 0.48 0.46 81 1014.6
20220123220239 20 166 11.3 22.5 0.00 0.48 0.46 80 1014.6
20220123215739 20 155 14.5 25.7 0.00 0.51 0.46 80 1014.8
20220123215239 20 171 14.5 22.5 0.00 0.51 0.46 81 1014.5
20220123214739 20 189 8.0 14.5 0.00 0.53 0.46 81 1014.7
20220123214239 20 171 8.0 16.1 0.00 0.53 0.46 81 1014.7
20220123213739 21 159 8.0 14.5 0.00 0.53 0.46 81 1014.6
20220123213239 21 153 11.3 19.3 0.00 0.53 0.46 81 1014.7
20220123212739 21 222 3.2 8.0 0.00 0.53 0.46 82 1014.6
20220123212239 20 223 0.0 4.8 0.00 0.53 0.46 83 1014.6
20220123211739 20 223 1.6 4.8 0.00 0.53 0.46 84 1014.6
20220123211239 20 223 3.2 8.0 0.00 0.53 0.46 85 1014.5
20220123210739 20 225 3.2 8.0 0.00 0.53 0.46 86 1014.5
20220123210239 20 224 4.8 8.0 0.00 0.53 0.46 87 1014.4
20220123205739 20 224 4.8 9.7 0.00 0.53 0.46 87 1014.4
20220123205239 20 226 8.0 11.3 0.00 0.53 0.46 88 1014.6
20220123204739 19 231 6.4 11.3 0.00 0.53 0.46 88 1014.5
20220123204239 19 224 9.7 12.9 0.00 0.53 0.46 89 1014.3
20220123203740 19 215 9.7 14.5 0.00 0.53 0.46 89 1014.3
20220123203239 18 213 11.3 14.5 0.00 0.53 0.46 89 1014.3
20220123202739 18 214 9.7 14.5 0.00 0.53 0.46 89 1014.3
20220123202239 18 203 8.0 16.1 0.00 0.53 0.46 89 1014.4
20220123201739 18 187 9.7 16.1 0.00 0.53 0.46 89 1014.3
20220123201239 18 186 12.9 19.3 0.00 0.53 0.46 89 1014.2
20220123200739 18 180 11.3 16.1 0.00 0.53 0.46 89 1014.1
20220123200239 18 175 11.3 14.5 0.00 0.53 0.46 89 1014.1
20220123195739 18 169 11.3 19.3 0.00 0.53 0.46 89 1014.0
20220123195239 18 185 9.7 19.3 0.03 0.53 0.46 89 1013.9
20220123194739 18 169 8.0 16.1 0.03 0.53 0.46 89 1013.8
20220123194239 18 158 9.7 16.1 0.03 0.53 0.46 89 1013.8
20220123193739 18 157 9.7 19.3 0.03 0.53 0.46 89 1013.8
20220123193239 18 162 12.9 19.3 0.03 0.53 0.46 89 1013.7
20220123192739 18 171 9.7 14.5 0.03 0.53 0.46 89 1013.7
20220123192239 18 197 9.7 19.3 0.03 0.53 0.46 88 1013.7
20220123191738 18 197 12.9 19.3 0.03 0.53 0.46 88 1013.7
20220123191239 18 202 9.7 16.1 0.03 0.53 0.46 88 1013.8
20220123190739 18 222 9.7 11.3 0.03 0.53 0.46 88 1013.7
20220123190239 18 202 8.0 11.3 0.03 0.53 0.46 89 1013.6
20220123185739 18 203 8.0 14.5 0.03 0.53 0.46 89 1013.6
20220123185239 18 161 8.0 11.3 0.00 0.51 0.43 89 1013.7
20220123184739 18 92 3.2 4.8 0.00 0.51 0.43 89 1013.7
20220123184240 18 92 3.2 4.8 0.00 0.51 0.43 89 1013.6
20220123183739 18 92 3.2 4.8 0.00 0.51 0.43 89 1013.5
20220123183239 18 91 1.6 4.8 0.00 0.51 0.43 89 1013.5
20220123182739 18 91 0.0 1.6 0.00 0.51 0.43 89 1013.4
20220123182239 18 91 0.0 3.2 0.00 0.51 0.43 89 1013.4
20220123181739 18 91 1.6 4.8 0.00 0.51 0.43 90 1013.4
20220123181238 18 92 4.8 14.5 0.00 0.53 0.43 89 1013.4
20220123180739 18 101 9.7 11.3 0.00 0.53 0.43 90 1013.3
20220123180239 18 159 8.0 12.9 0.00 0.61 0.43 90 1013.2
20220123175739 18 142 14.5 19.3 0.00 0.66 0.43 90 1013.1
20220123175239 18 163 12.9 19.3 0.00 0.66 0.43 90 1013.2
20220123174738 18 164 16.1 19.3 0.00 0.66 0.43 91 1013.2
20220123174239 18 164 14.5 19.3 0.00 0.66 0.43 91 1013.2
20220123173739 18 169 11.3 19.3 0.00 0.66 0.43 91 1013.1
20220123173239 18 195 14.5 19.3 0.00 0.66 0.43 91 1013.1
20220123172739 18 203 16.1 20.9 0.00 0.66 0.43 91 1013.1
20220123172238 18 190 16.1 24.1 0.00 0.66 0.43 91 1013.0
20220123171739 18 186 20.9 25.7 0.03 0.66 0.43 91 1013.0
20220123171238 18 179 14.5 20.9 0.03 0.66 0.43 91 1013.0
20220123170738 18 165 17.7 20.9 0.03 0.66 0.43 91 1013.2
20220123170238 18 163 14.5 19.3 0.03 0.66 0.43 91 1013.2
20220123165738 18 155 17.7 24.1 0.03 0.66 0.43 90 1013.3
20220123165238 18 164 11.3 19.3 0.03 0.66 0.43 90 1013.3
20220123164739 18 171 14.5 22.5 0.03 0.66 0.43 90 1013.2
20220123164238 18 175 14.5 22.5 0.03 0.66 0.43 90 1013.2
20220123163738 18 168 16.1 22.5 0.03 0.66 0.43 90 1013.2
20220123163238 18 162 16.1 20.9 0.03 0.66 0.43 90 1013.2
20220123162739 18 164 16.1 22.5 0.03 0.66 0.43 90 1013.3
20220123162238 18 159 19.3 25.7 0.03 0.66 0.43 90 1013.5
20220123161738 18 161 17.7 25.7 0.00 0.64 0.41 90 1013.5
20220123161238 18 156 16.1 24.1 0.00 0.64 0.41 89 1013.5
20220123160738 18 158 17.7 24.1 0.00 0.64 0.41 89 1013.6
20220123160238 18 165 17.7 27.4 0.00 0.64 0.41 89 1013.5
20220123155739 18 156 12.9 25.7 0.00 0.64 0.41 89 1013.6
20220123155238 18 177 12.9 20.9 0.00 0.64 0.41 89 1013.7
20220123154738 18 175 11.3 19.3 0.00 0.64 0.41 89 1013.8
20220123154239 18 161 9.7 14.5 0.03 0.64 0.41 89 1013.8
20220123153738 18 170 11.3 19.3 0.05 0.64 0.41 89 1013.6
20220123153239 18 183 14.5 19.3 0.08 0.64 0.41 89 1013.9
20220123152739 18 165 12.9 16.1 0.08 0.64 0.41 89 1013.8
20220123152239 18 188 9.7 16.1 0.08 0.64 0.41 89 1013.8
20220123151740 18 187 11.3 16.1 0.08 0.64 0.41 89 1013.9
20220123151238 18 194 12.9 16.1 0.08 0.64 0.41 89 1013.8
20220123150738 18 185 12.9 19.3 0.08 0.64 0.41 89 1013.7
20220123150239 18 180 14.5 19.3 0.08 0.64 0.41 89 1013.9
20220123145739 18 175 12.9 19.3 0.08 0.64 0.41 89 1013.8
20220123145238 18 177 9.7 16.1 0.08 0.64 0.41 89 1014.0
20220123144738 18 175 11.3 16.1 0.08 0.64 0.41 89 1014.0
20220123144238 18 151 14.5 19.3 0.05 0.61 0.38 89 1014.0
20220123143739 18 139 16.1 24.1 0.03 0.58 0.36 89 1014.2
20220123143238 18 155 8.0 12.9 0.00 0.56 0.33 88 1014.2
20220123142738 18 175 8.0 11.3 0.00 0.56 0.33 88 1014.1
20220123142238 18 180 9.7 12.9 0.00 0.56 0.33 88 1014.1
20220123141739 18 178 11.3 14.5 0.03 0.56 0.33 88 1014.2
20220123141238 18 186 8.0 9.7 0.03 0.56 0.33 88 1014.3
20220123140739 18 182 8.0 9.7 0.13 0.56 0.33 88 1014.3
20220123140239 18 165 6.4 9.7 0.33 0.56 0.33 88 1014.3
20220123135738 18 164 4.8 8.0 0.10 0.56 0.33 88 1014.3
20220123135238 18 163 6.4 11.3 0.10 0.56 0.33 88 1014.4
20220123134738 18 161 8.0 12.9 0.10 0.56 0.33 88 1014.6
20220123134239 18 174 8.0 12.9 0.10 0.56 0.33 87 1014.6
20220123133738 18 161 9.7 12.9 0.10 0.56 0.33 87 1014.7
20220123133238 18 135 11.3 19.3 0.10 0.56 0.33 87 1014.6
20220123132738 19 147 11.3 19.3 0.10 0.56 0.33 87 1014.7
20220123132238 19 157 9.7 19.3 0.10 0.56 0.33 86 1014.8
20220123131739 19 136 14.5 20.9 0.08 0.53 0.30 86 1015.0
20220123131238 20 172 8.0 12.9 0.08 0.53 0.30 85 1015.0
20220123130739 20 183 6.4 14.5 0.20 0.43 0.20 85 1015.0
20220123130238 19 192 1.6 3.2 0.00 0.23 0.00 85 1015.0
20220123125738 19 192 3.2 4.8 0.00 0.23 0.23 85 1015.0
20220123125237 19 192 3.2 8.0 0.00 0.23 0.23 85 1015.0
20220123124737 19 192 4.8 8.0 0.00 0.23 0.23 85 1015.0
20220123124237 20 197 4.8 8.0 0.00 0.23 0.23 84 1015.2
20220123123737 20 180 6.4 8.0 0.00 0.23 0.23 84 1015.2
20220123123237 20 178 4.8 8.0 0.00 0.23 0.23 84 1015.1
20220123122738 20 177 4.8 9.7 0.00 0.23 0.23 84 1015.3
20220123122237 20 165 1.6 9.7 0.00 0.23 0.23 84 1015.3
20220123121738 20 162 4.8 4.8 0.00 0.23 0.23 84 1015.4
20220123121238 20 161 3.2 8.0 0.00 0.23 0.23 84 1015.5
20220123120738 20 160 3.2 4.8 0.00 0.23 0.23 84 1015.5
20220123120238 20 106 0.0 3.2 0.00 0.23 0.23 84 1015.4
20220123115738 20 106 1.6 3.2 0.00 0.23 0.23 84 1015.4
20220123115238 20 106 1.6 3.2 0.00 0.23 0.23 84 1015.5
20220123114738 20 106 1.6 4.8 0.00 0.23 0.23 84 1015.4
20220123114238 20 106 3.2 4.8 0.00 0.23 0.23 83 1015.6
20220123113738 20 106 3.2 4.8 0.00 0.23 0.23 83 1015.5
20220123113238 20 106 3.2 8.0 0.00 0.23 0.23 83 1015.6
20220123112738 20 98 8.0 11.3 0.00 0.23 0.23 83 1015.6
20220123112239 20 103 9.7 19.3 0.00 0.23 0.23 83 1015.6
20220123111738 19 92 8.0 9.7 0.00 0.23 0.23 83 1015.5